Location: ????????
(55.3155°N, 39.2900°E)
Time: 15:52:41
(UTC+00:00)

ARIANE 6 FM1 Upper Stage - Visible Passes

Search period start: 14 November 2025 00:00
Search period end: 24 November 2025 00:00
Orbit: 522 x 612 km, 62.0° (Epoch: 14 November)

Date Brightness Start Highest point End Pass type
(mag) Time Alt. Az. Time Alt. Az. Time Alt. Az.
14 Nov 2.8 14:38:29 10° WSW 14:42:28 64° NNW 14:45:31 16° NE visible
14 Nov 4.0 16:18:27 10° WNW 16:21:33 31° NNW 16:21:33 31° NNW visible
15 Nov 3.0 14:39:15 10° WSW 14:43:10 52° NNW 14:46:07 16° NE visible
15 Nov 4.1 16:19:17 10° WNW 16:22:09 29° NNW 16:22:09 29° NNW visible
16 Nov 3.3 14:40:02 10° W 14:43:52 44° NNW 14:46:42 17° NE visible
16 Nov 4.2 16:20:04 10° WNW 16:22:44 28° NNW 16:22:44 28° NNW visible
17 Nov 3.5 14:40:51 10° W 14:44:36 39° NNW 14:47:16 17° NE visible
17 Nov 4.2 16:20:49 10° WNW 16:23:18 27° NNW 16:23:18 27° NNW visible
18 Nov 3.6 14:41:38 10° W 14:45:19 35° NNW 14:47:49 17° NE visible
18 Nov 4.3 16:21:31 10° NW 16:23:51 26° NNW 16:23:51 26° NNW visible
19 Nov 3.7 14:42:25 10° WNW 14:46:03 32° N 14:48:21 18° NE visible
19 Nov 4.3 16:22:11 10° NW 16:24:23 26° NNW 16:24:23 26° NNW visible
20 Nov 3.7 14:43:11 10° WNW 14:46:46 31° N 14:48:53 19° NE visible
20 Nov 4.3 16:22:47 10° NW 16:24:55 26° NNW 16:24:55 26° NNW visible
21 Nov 3.7 14:43:55 10° WNW 14:47:29 31° N 14:49:25 20° NE visible
21 Nov 4.3 16:23:22 10° NW 16:25:28 27° NW 16:25:28 27° NW visible
22 Nov 3.6 14:44:35 10° WNW 14:48:10 31° N 14:49:58 21° NE visible
22 Nov 4.3 16:23:56 10° NW 16:26:00 28° NW 16:26:00 28° NW visible
23 Nov 3.5 14:45:14 10° WNW 14:48:50 32° N 14:50:31 23° NE visible
23 Nov 4.2 16:24:28 10° NW 16:26:34 29° NW 16:26:34 29° NW visible
